Aérodrome :
LOGIN :

S'inscrire | Disclaimer

   EN    FR    IT 

 










Légende :    VFR   VFR Marginal   IFR   IFR Intensif   IFR Très Intensif
Visi : 
Plafond : 
>= 8 km
>= 3000ft
5 à 8 km
1000 à 3000 ft
1500m à 5 km
500 à 1000 ft
800 à 1500m
200 à 500 ft
< 800m
< 200 ft
Symboles :   Orages  Brouillard  Fortes neiges  Fortes précipitations  Vent > 20 kt
SIGMETs :   Divers  Orages  Givrage  Turbulence  Onde Orograph.  Cendres Volcan.







- Altitude de l'aérodrome : 38 ft
- Code IATA : BOH
- Voir les cartes d'approche


EGHH - Bournemouth

DERNIER METAR :
  • 171650Z 23014KT 9999 BKN012 19/16 Q1012

METARs EXPIRÉS :
  • 171620Z 23014KT 9999 SCT012 BKN020 19/16 Q1012
  • 171550Z 24012KT 9999 SCT015 BKN047 20/16 Q1013
  • 171520Z 23014KT 9999 SCT023 BKN047 20/16 Q1013
  • 171450Z 26016KT 9999 SCT027 20/15 Q1013
  • 171420Z 25014KT 9999 SCT027 22/16 Q1012

TAF AMD TAF EGHH
Valide du 17 à 17h jusqu'au 18 à 00h UTC


171700Z 1717/1724 24015KT 9999 BKN012
PROB40
TEMPO 1717/1720 9000 BKN008
BECMG 1718/1721 FEW015
ATIS : +44 1202 364 151
Météo : +44 1202 364 158 (TAF)
Pas de NOTAMs connus pour ce terrain.



MET'MAP, la Météo Aéronautique d'un coup d'oeil ! - Copyright ORBIFLY Décembre 2007 - Disclaimer

ORBIFLY MET'MAP TEAM :

Programmation & Développement : Alexandra Zaïnal
Conception & Développement : Baudouin d'Aumeries
Co-Programmation & Développement : Marc-Olivier Méhu
Soutien technique & logistique : Manuel Goepfert

Contact : metmap@orbifly.com




SOURCES & CREDITS :

   NOAA